Location: Gwatt
(46.7204°N, 7.6223°E)
Time: 09:27:14
(UTC+00:00)

Explorer 11/Cluster Stage 4 - All Passes

Search period start: 24 January 2021 00:00
Search period end: 03 February 2021 00:00
Orbit: 467 x 1258 km, 28.8° (Epoch: 23 January)

Date Brightness Start Highest point End Pass type
(mag) Time Alt. Az. Time Alt. Az. Time Alt. Az.
24 Jan - 00:07:28 10° SW 00:11:46 16° SSW 00:16:16 10° SSE night (unlit)
24 Jan - 20:22:16 10° S 20:25:02 13° SSE 20:28:02 10° SE visible
24 Jan - 22:08:17 10° SW 22:12:40 18° S 22:17:28 10° SE night (unlit)
24 Jan - 23:56:46 10° SW 00:00:32 14° SSW 00:04:28 10° SSE night (unlit)
25 Jan - 20:11:13 10° S 20:13:52 13° SSE 20:16:44 10° SE visible
25 Jan - 21:57:26 10° SW 22:01:29 17° S 22:05:56 10° SE night (unlit)
25 Jan - 23:46:16 10° SW 23:49:18 13° SSW 23:52:29 10° S night (unlit)
26 Jan - 20:00:16 10° S 20:02:44 13° SSE 20:05:23 10° SE visible
26 Jan - 21:46:39 10° SW 21:50:19 16° S 21:54:20 10° SSE night (unlit)
26 Jan - 23:36:10 10° SSW 23:38:06 11° SSW 23:40:04 10° S night (unlit)
27 Jan - 19:49:25 10° S 19:51:37 12° SSE 19:53:59 10° SE visible
27 Jan - 21:35:59 10° SW 21:39:10 14° S 21:42:39 10° SSE night (unlit)
28 Jan - 19:38:40 10° S 19:40:31 12° S 19:42:29 10° SSE visible
28 Jan - 21:25:28 10° SSW 21:28:03 13° S 21:30:49 10° SSE night (unlit)
29 Jan - 19:28:06 10° S 19:29:27 11° S 19:30:52 10° SSE visible
29 Jan - 21:15:16 10° SSW 21:16:57 11° S 21:18:41 10° S night (unlit)
30 Jan - 19:18:11 10° S 19:18:23 10° S 19:18:35 10° S visible
